AV279 Weather Reports


time (UTC)temp
F
wind
direction
speed
knots
gust
knots
rain 1hr
in
rain 24hr
in
rain mn
in
humidity
%
barometer
mb
20260505235320 51 23 6.1 10.4 0.00 0.00 0.00 79 1009.8
20260505234320 51 0 6.1 9.6 0.00 0.00 0.00 78 1009.7
20260505233322 52 0 3.5 7.0 0.00 0.00 0.00 77 1009.8
20260505232350 52 0 3.5 8.7 0.00 0.00 0.00 78 1009.9
20260505231330 52 23 6.1 10.4 0.00 0.00 0.00 78 1009.8
20260505230330 52 23 6.1 9.6 0.00 0.00 0.00 78 1009.9
20260505225320 52 0 4.3 8.7 0.00 0.00 0.00 78 1009.9
20260505224352 52 45 3.5 7.8 0.00 0.00 0.00 78 1009.9
20260505223319 52 0 4.3 9.6 0.00 0.00 0.00 78 1010.0
20260505222320 52 45 4.3 7.8 0.00 0.00 0.00 78 1009.9
20260505221350 52 23 3.5 9.6 0.00 0.00 0.00 78 1010.0
20260505220323 52 23 7.8 11.3 0.00 0.00 0.00 78 1010.1
20260505215533 52 23 3.5 7.0 0.00 0.00 0.00 78 1010.1
20260505214330 52 0 6.1 10.4 0.00 0.00 0.00 78 1010.2
20260505213319 52 23 3.5 5.2 0.00 0.00 0.00 77 1010.2
20260505212319 52 23 3.5 4.3 0.00 0.00 0.00 77 1010.2
20260505211401 52 45 4.3 8.7 0.00 0.00 0.00 77 1010.2
20260505210319 52 68 3.5 7.0 0.00 0.00 0.00 78 1010.1
20260505205330 52 23 7.0 10.4 0.00 0.00 0.00 78 1010.0
20260505204330 53 338 4.3 11.3 0.00 0.00 0.00 78 1010.1
20260505203330 52 0 7.0 12.2 0.00 0.00 0.00 78 1010.1
20260505202319 52 68 2.6 4.3 0.00 0.00 0.00 79 1010.1
20260505201330 52 45 3.5 7.8 0.00 0.00 0.00 78 1010.1
20260505200319 52 23 6.1 8.7 0.00 0.00 0.00 79 1010.0
20260505195320 52 23 8.7 12.2 0.00 0.00 0.00 78 1009.8
20260505194319 53 23 5.2 9.6 0.00 0.00 0.00 78 1009.7
20260505193319 53 315 2.6 5.2 0.00 0.00 0.00 77 1009.7
20260505192319 53 45 5.2 9.6 0.00 0.00 0.00 77 1009.6
20260505191330 53 0 5.2 9.6 0.00 0.00 0.00 76 1009.6
20260505190524 53 23 4.3 7.8 0.00 0.00 0.00 76 1009.5
20260505190019 53 23 7.8 13.9 0.00 0.00 0.00 76 1009.6
20260505185030 53 23 8.7 12.2 0.00 0.00 0.00 76 1009.5
20260505184019 54 0 5.2 9.6 0.00 0.00 0.00 76 1009.4
20260505183030 54 0 4.3 7.8 0.00 0.00 0.00 76 1009.5
20260505182019 54 0 5.2 9.6 0.00 0.00 0.00 75 1009.6
20260505181019 54 45 7.8 14.8 0.00 0.00 0.00 76 1009.5
20260505180019 54 45 8.7 13.0 0.00 0.00 0.00 76 1009.5
20260505175051 54 23 2.6 8.7 0.00 0.00 0.00 76 1009.5
20260505174019 54 23 5.2 10.4 0.00 0.00 0.00 76 1009.6
20260505173019 55 0 6.1 9.6 0.00 0.00 0.00 76 1009.4
20260505172019 55 23 10.4 16.5 0.00 0.00 0.00 77 1009.3
20260505171051 55 23 3.5 5.2 0.00 0.00 0.00 77 1009.2
20260505170030 55 23 7.0 10.4 0.00 0.00 0.00 77 1009.3
20260505165029 55 23 6.1 11.3 0.00 0.00 0.00 77 1009.3
20260505164019 55 45 5.2 9.6 0.00 0.00 0.00 77 1009.4
20260505163019 55 23 7.0 12.2 0.00 0.00 0.00 77 1009.3
20260505162019 55 45 10.4 14.8 0.00 0.00 0.00 75 1009.2
20260505161030 56 23 5.2 13.0 0.00 0.00 0.00 74 1009.3
20260505153049 57 45 7.0 10.4 0.00 0.00 0.00 74 1009.5
20260505152029 57 315 1.7 2.6 0.00 0.00 0.00 74 1009.4
20260505151019 57 23 5.2 9.6 0.00 0.00 0.00 73 1009.5
20260505130219 60 0 6.1 9.6 0.00 0.00 0.00 69 1010.2
20260505124230 60 23 6.1 13.0 0.00 0.00 0.00 70 1009.9
20260505123218 59 23 9.6 16.5 0.00 0.00 0.00 70 1010.1
20260505122219 58 23 5.2 14.8 0.00 0.00 0.00 72 1010.1
20260505121218 57 23 5.2 7.8 0.00 0.00 0.00 72 1010.2
20260505120251 57 338 7.8 14.8 0.00 0.00 0.00 72 1010.1
20260505115219 58 45 5.2 8.7 0.00 0.00 0.00 71 1010.3
20260505114218 58 23 6.1 10.4 0.00 0.00 0.00 71 1010.2
20260505113219 59 0 9.6 13.9 0.00 0.00 0.00 70 1010.2
20260505112238 58 45 5.2 13.0 0.00 0.00 0.00 69 1010.2
20260505111219 59 68 4.3 7.8 0.00 0.00 0.00 67 1010.2
20260505110229 59 23 9.6 13.9 0.00 0.00 0.00 69 1010.4
20260505101249 59 23 9.6 15.6 0.00 0.00 0.00 70 1010.5
20260505100258 59 23 6.1 13.9 0.00 0.00 0.00 69 1010.5
20260505095231 57 0 7.8 11.3 0.00 0.00 0.00 71 1010.7
20260505094249 56 45 2.6 4.3 0.00 0.00 0.00 73 1010.6
20260505093218 57 45 7.0 11.3 0.00 0.00 0.00 73 1010.7
20260505092331 57 45 7.0 13.0 0.00 0.00 0.00 71 1010.7
20260505091238 57 23 5.2 9.6 0.00 0.00 0.00 72 1010.7
20260505090218 57 45 6.1 13.0 0.00 0.00 0.00 72 1010.8
20260505085437 57 45 5.2 12.2 0.00 0.00 0.00 73 1010.8
20260505084619 56 0 6.1 10.4 0.00 0.00 0.00 74 1010.8
20260505083618 55 45 4.3 8.7 0.00 0.00 0.00 75 1010.8
20260505082631 55 45 7.0 10.4 0.00 0.00 0.00 77 1010.9
20260505081828 55 23 2.6 4.3 0.00 0.00 0.00 76 1010.9
20260505080638 55 0 7.0 11.3 0.00 0.00 0.00 76 1011.0
20260505075620 54 0 5.2 8.7 0.00 0.00 0.00 78 1011.2
20260505074618 54 23 5.2 7.8 0.00 0.00 0.00 78 1011.2
20260505073620 54 45 1.7 3.5 0.00 0.00 0.00 79 1011.3
20260505072620 54 0 6.1 8.7 0.00 0.00 0.00 79 1011.2
20260505071631 54 23 5.2 9.6 0.00 0.00 0.00 79 1011.2
20260505070620 54 23 5.2 11.3 0.00 0.00 0.00 79 1011.1
20260505065650 54 23 9.6 12.2 0.00 0.00 0.00 79 1011.1
20260505064630 54 338 3.5 6.1 0.00 0.00 0.00 79 1011.3
20260505063652 53 23 3.5 7.8 0.00 0.00 0.00 80 1011.3
20260505062700 53 23 5.2 10.4 0.00 0.00 0.00 80 1011.2
20260505061638 53 23 5.2 10.4 0.00 0.00 0.00 81 1011.1
20260505060631 53 45 3.5 6.1 0.00 0.00 0.00 82 1011.1
20260505055631 52 0 6.1 10.4 0.00 0.00 0.00 83 1011.1
20260505054631 52 0 5.2 8.7 0.00 0.00 0.00 85 1011.1
20260505053620 52 45 0.9 2.6 0.00 0.00 0.00 85 1011.1
20260505052630 52 45 3.5 6.1 0.00 0.00 0.00 85 1011.1
20260505051631 52 0 3.5 5.2 0.00 0.00 0.00 85 1011.3
20260505050652 52 45 2.6 6.1 0.00 0.00 0.00 85 1011.5
20260505041631 52 0 6.1 8.7 0.00 0.00 0.00 86 1011.5
20260505040650 52 23 4.3 7.8 0.00 0.00 0.00 86 1011.5
20260505035620 52 23 1.7 3.5 0.00 0.00 0.00 86 1011.7
20260505034620 52 23 2.6 6.1 0.00 0.00 0.00 86 1011.7
20260505033620 52 45 1.7 2.6 0.00 0.00 0.00 86 1011.9
20260505032630 52 23 1.7 2.6 0.00 0.00 0.00 86 1011.8
20260505031630 52 113 1.7 3.5 0.00 0.00 0.00 85 1011.9
20260505030620 52 23 2.6 4.3 0.00 0.00 0.00 86 1011.9
20260505025619 52 0 3.5 7.0 0.00 0.00 0.00 86 1012.0
20260505024619 52 0 4.3 8.7 0.00 0.00 0.00 86 1012.1
20260505023619 52 23 3.5 6.1 0.00 0.00 0.00 86 1012.1
20260505022650 52 0 4.3 9.6 0.00 0.00 0.00 87 1012.0
20260505021619 53 45 4.3 7.8 0.00 0.00 0.00 87 1011.9
20260505020642 53 23 7.0 10.4 0.00 0.00 0.00 87 1012.0
20260505015640 53 23 2.6 6.1 0.00 0.00 0.00 87 1011.8
20260505014620 53 23 1.7 2.6 0.00 0.00 0.00 87 1011.8
20260505013619 53 0 3.5 8.7 0.00 0.00 0.00 87 1012.0
20260505012619 53 0 2.6 5.2 0.00 0.00 0.00 87 1012.0
20260505011630 53 45 2.6 4.3 0.00 0.00 0.00 87 1011.8
20260505010630 53 0 2.6 4.3 0.00 0.00 0.00 86 1011.8
20260505005639 53 0 3.5 5.2 0.00 0.00 0.00 86 1012.0
20260505004619 52 45 2.6 4.3 0.00 0.00 0.00 86 1012.0
20260505003619 53 45 2.6 5.2 0.00 0.00 0.00 86 1012.2
20260505002630 53 0 0.9 2.6 0.00 0.00 0.00 86 1012.4
20260505001650 52 0 3.5 6.1 0.00 0.00 0.00 86 1012.6
20260505000630 52 23 3.5 6.1 0.00 0.00 0.00 86 1012.5
20260504235620 53 0 3.5 5.2 0.00 0.00 0.00 86 1012.7